timestamp,surface_pressure_avg,surface_temp_avg,battery_voltage,lat,long
2018-06-28 00:00:00+00:00,359.168,3.96,13.29,47.84626,-54.09684
2018-06-28 00:10:00+00:00,357.7263,3.98,13.21,47.84626,-54.09684
2018-06-28 00:20:00+00:00,357.6979,3.99,13.21,47.84626,-54.09684
2018-06-28 00:30:00+00:00,349.4431,3.99,13.21,47.84626,-54.09684
2018-06-28 00:40:00+00:00,342.7963,4.0,13.21,47.84626,-54.09684
2018-06-28 00:50:00+00:00,342.4597,4.0,13.21,47.84626,-54.09684
2018-06-28 01:00:00+00:00,339.3196,4.0,13.13,47.84626,-54.09684
2018-06-28 01:10:00+00:00,331.8813,4.0,13.05,47.84626,-54.09684
2018-06-28 01:20:00+00:00,326.5096,4.0,13.05,47.84626,-54.09684
2018-06-28 01:30:00+00:00,326.473,4.04,13.05,47.84626,-54.09684
2018-06-28 01:40:00+00:00,320.9113,4.2,13.13,47.84626,-54.09684
2018-06-28 01:50:00+00:00,312.0363,4.3,13.13,47.84626,-54.09684
2018-06-28 02:00:00+00:00,308.2397,4.4,13.05,47.84626,-54.09684
2018-06-28 02:10:00+00:00,302.843,4.5,12.97,47.84626,-54.09684
2018-06-28 02:20:00+00:00,295.3813,4.6,13.05,47.84626,-54.09684
2018-06-28 02:30:00+00:00,287.1198,4.69,13.05,47.84626,-54.09684
2018-06-28 02:40:00+00:00,281.2047,4.7,13.05,47.84626,-54.09684
2018-06-28 02:50:00+00:00,271.6114,4.83,13.05,47.84626,-54.09684
2018-06-28 03:00:00+00:00,260.8731,4.95,13.05,47.84626,-54.09684
2018-06-28 03:10:00+00:00,253.5848,5.0,12.97,47.84626,-54.09684
2018-06-28 03:20:00+00:00,247.0097,5.09,12.97,47.84626,-54.09684
2018-06-28 03:30:00+00:00,239.4164,5.1,13.05,47.84626,-54.09684
2018-06-28 03:40:00+00:00,231.4597,5.15,13.05,47.84626,-54.09684
2018-06-28 03:50:00+00:00,225.0781,5.19,13.05,47.84626,-54.09684
2018-06-28 04:00:00+00:00,220.5598,5.2,12.97,47.84626,-54.09684
2018-06-28 04:10:00+00:00,214.1664,5.2,12.89,47.84626,-54.09684
2018-06-28 04:20:00+00:00,209.7132,5.19,12.97,47.84626,-54.09684
2018-06-28 04:30:00+00:00,208.4631,5.1,12.97,47.84626,-54.09684
2018-06-28 04:40:00+00:00,206.0414,5.1,12.97,47.84626,-54.09684
2018-06-28 04:50:00+00:00,198.4865,5.16,13.05,47.84626,-54.09684
2018-06-28 05:00:00+00:00,191.7698,5.2,12.97,47.84626,-54.09684
2018-06-28 05:10:00+00:00,191.5331,5.2,12.89,47.84626,-54.09684
2018-06-28 05:20:00+00:00,190.3914,5.18,12.97,47.84626,-54.09684
2018-06-28 05:30:00+00:00,184.8615,5.18,12.97,47.84626,-54.09684
2018-06-28 05:40:00+00:00,185.9681,5.19,12.97,47.84626,-54.09684
2018-06-28 05:50:00+00:00,191.3398,5.16,12.97,47.84626,-54.09684
2018-06-28 06:00:00+00:00,190.9631,5.17,12.97,47.84626,-54.09684
2018-06-28 06:10:00+00:00,190.8581,5.19,12.89,47.84626,-54.09684
2018-06-28 06:20:00+00:00,196.3214,5.19,12.97,47.84626,-54.09684
2018-06-28 06:30:00+00:00,198.8631,5.2,12.97,47.84626,-54.09684
2018-06-28 06:40:00+00:00,196.9615,5.2,12.97,47.84626,-54.09684
2018-06-28 06:50:00+00:00,200.6865,5.2,12.97,47.84626,-54.09684
2018-06-28 07:00:00+00:00,205.0548,5.2,12.89,47.84626,-54.09684
2018-06-28 07:10:00+00:00,205.9014,5.2,12.81,47.84626,-54.09684
2018-06-28 07:20:00+00:00,210.1848,5.2,12.89,47.84626,-54.09684
2018-06-28 07:30:00+00:00,218.2931,5.2,12.89,47.84626,-54.09684
2018-06-28 07:40:00+00:00,222.1365,5.2,12.97,47.84626,-54.09684
2018-06-28 07:50:00+00:00,225.9297,5.2,12.97,47.84626,-54.09684
2018-06-28 08:00:00+00:00,230.6714,5.2,12.89,47.84626,-54.09684
2018-06-28 08:10:00+00:00,237.9764,5.2,12.81,47.84626,-54.09684
2018-06-28 08:20:00+00:00,242.6514,5.2,12.89,47.84626,-54.09684
2018-06-28 08:30:00+00:00,244.0414,5.2,12.97,47.84626,-54.09684
2018-06-28 08:40:00+00:00,246.6081,5.2,12.97,47.84626,-54.09684
2018-06-28 08:50:00+00:00,252.9031,5.2,12.97,47.84626,-54.09684
2018-06-28 09:00:00+00:00,257.2448,5.2,12.97,47.84626,-54.09684
2018-06-28 09:10:00+00:00,261.0164,5.2,12.89,47.84626,-54.09684
2018-06-28 09:20:00+00:00,266.748,5.2,12.97,47.84626,-54.09684
2018-06-28 09:30:00+00:00,276.5247,5.2,12.97,47.84626,-54.09684
2018-06-28 09:40:00+00:00,283.4448,5.2,13.05,47.84626,-54.09684
2018-06-28 09:50:00+00:00,287.5514,5.17,13.13,47.84626,-54.09684
2018-06-28 10:00:00+00:00,292.838,5.14,13.13,47.84626,-54.09684
2018-06-28 10:10:00+00:00,303.3846,5.19,13.05,47.84626,-54.09684
2018-06-28 10:20:00+00:00,311.038,5.2,13.29,47.84626,-54.09684
2018-06-28 10:30:00+00:00,312.7863,5.2,13.37,47.84626,-54.09684
2018-06-28 10:40:00+00:00,316.6646,5.2,13.44,47.84626,-54.09684
2018-06-28 10:50:00+00:00,324.178,5.2,13.6,47.84626,-54.09684
2018-06-28 11:00:00+00:00,329.6981,5.2,13.6,47.84626,-54.09684
2018-06-28 11:10:00+00:00,328.6846,5.2,13.68,47.84626,-54.09684
2018-06-28 11:20:00+00:00,332.903,5.2,14.24,47.84626,-54.09684
2018-06-28 11:30:00+00:00,336.1946,5.2,14.32,47.84626,-54.09684
2018-06-28 11:40:00+00:00,336.4063,5.22,14.32,47.84626,-54.09684
2018-06-28 11:50:00+00:00,336.108,5.23,14.56,47.84626,-54.09684
2018-06-28 12:00:00+00:00,337.0346,5.22,14.4,47.84626,-54.09684
2018-06-28 12:10:00+00:00,336.5613,5.23,14.4,47.84626,-54.09684
2018-06-28 12:20:00+00:00,332.3564,5.27,14.72,47.84626,-54.09684
2018-06-28 12:30:00+00:00,331.3879,5.27,14.64,47.84626,-54.09684
2018-06-28 12:40:00+00:00,330.7097,5.28,14.48,47.84626,-54.09684
2018-06-28 12:50:00+00:00,327.2197,5.29,14.64,47.84626,-54.09684
2018-06-28 13:00:00+00:00,324.9213,5.3,14.48,47.84626,-54.09684
2018-06-28 13:10:00+00:00,320.1447,5.3,14.48,47.84626,-54.09684
2018-06-28 13:20:00+00:00,317.4814,5.3,15.83,47.84626,-54.09684
2018-06-28 13:30:00+00:00,315.303,5.3,15.11,47.84626,-54.09684
2018-06-28 13:40:00+00:00,312.9697,5.3,16.23,47.84626,-54.09684
2018-06-28 13:50:00+00:00,308.4163,5.31,14.64,47.84626,-54.09684
2018-06-28 14:00:00+00:00,302.0914,5.36,14.56,47.84626,-54.09684
2018-06-28 14:10:00+00:00,297.9664,5.37,14.56,47.84626,-54.09684
2018-06-28 14:20:00+00:00,293.7697,5.37,14.56,47.84626,-54.09684
2018-06-28 14:30:00+00:00,285.2347,5.38,14.64,47.84626,-54.09684
2018-06-28 14:40:00+00:00,277.8147,5.38,14.64,47.84626,-54.09684
2018-06-28 14:50:00+00:00,273.1531,5.39,14.72,47.84626,-54.09684
2018-06-28 15:00:00+00:00,267.4364,5.39,14.8,47.84626,-54.09684
2018-06-28 15:10:00+00:00,257.0764,5.4,14.64,47.84626,-54.09684
2018-06-28 15:20:00+00:00,248.2281,5.4,14.72,47.84626,-54.09684
2018-06-28 15:30:00+00:00,241.8297,5.4,14.64,47.84626,-54.09684
2018-06-28 15:40:00+00:00,233.2431,5.4,14.64,47.84626,-54.09684
2018-06-28 15:50:00+00:00,223.2114,5.44,14.64,47.84626,-54.09684
2018-06-28 16:00:00+00:00,217.0164,5.46,14.56,47.84626,-54.09684
2018-06-28 16:10:00+00:00,212.3981,5.44,14.48,47.84626,-54.09684
2018-06-28 16:20:00+00:00,206.2231,5.43,14.64,47.84626,-54.09684
2018-06-28 16:30:00+00:00,202.0315,5.46,14.56,47.84626,-54.09684
2018-06-28 16:40:00+00:00,200.4081,5.44,14.56,47.84626,-54.09684
2018-06-28 16:50:00+00:00,197.5131,5.45,14.56,47.84626,-54.09684
2018-06-28 17:00:00+00:00,193.7248,5.5,14.48,47.84626,-54.09684
2018-06-28 17:10:00+00:00,191.7631,5.5,14.4,47.84626,-54.09684
2018-06-28 17:20:00+00:00,191.8481,5.53,14.48,47.84626,-54.09684
2018-06-28 17:30:00+00:00,189.6181,5.59,14.4,47.84626,-54.09684
2018-06-28 17:40:00+00:00,187.4898,5.63,14.4,47.84626,-54.09684
2018-06-28 17:50:00+00:00,188.2898,5.7,14.4,47.84626,-54.09684
2018-06-28 18:00:00+00:00,189.9681,5.79,14.32,47.84626,-54.09684
2018-06-28 18:10:00+00:00,191.0414,5.8,14.24,47.84626,-54.09684
2018-06-28 18:20:00+00:00,190.9715,5.86,14.32,47.84626,-54.09684
2018-06-28 18:30:00+00:00,192.2531,5.9,14.32,47.84626,-54.09684
2018-06-28 18:40:00+00:00,196.1431,5.87,14.32,47.84626,-54.09684
2018-06-28 18:50:00+00:00,199.6831,5.84,14.32,47.84626,-54.09684
2018-06-28 19:00:00+00:00,201.2748,5.85,14.24,47.84626,-54.09684
2018-06-28 19:10:00+00:00,203.4081,5.84,14.16,47.84626,-54.09684
2018-06-28 19:20:00+00:00,208.4797,5.81,14.24,47.84626,-54.09684
2018-06-28 19:30:00+00:00,211.8764,5.8,14.24,47.84626,-54.09684
2018-06-28 19:40:00+00:00,215.1348,5.72,14.24,47.84626,-54.09684
2018-06-28 19:50:00+00:00,223.3898,5.7,14.24,47.84626,-54.09684
2018-06-28 20:00:00+00:00,231.5448,5.65,14.24,47.84626,-54.09684
2018-06-28 20:10:00+00:00,235.9164,5.6,14.08,47.84626,-54.09684
2018-06-28 20:20:00+00:00,239.9164,5.5,14.16,47.84626,-54.09684
2018-06-28 20:30:00+00:00,244.1764,5.4,14.16,47.84626,-54.09684
2018-06-28 20:40:00+00:00,249.5147,5.35,14.16,47.84626,-54.09684
2018-06-28 20:50:00+00:00,253.6997,5.29,14.16,47.84626,-54.09684
2018-06-28 21:00:00+00:00,255.5997,5.2,14.08,47.84626,-54.09684
2018-06-28 21:10:00+00:00,260.4114,5.1,14.0,47.84626,-54.09684
2018-06-28 21:20:00+00:00,268.1398,5.0,14.0,47.84626,-54.09684
2018-06-28 21:30:00+00:00,273.738,5.0,14.0,47.84626,-54.09684
2018-06-28 21:40:00+00:00,277.3897,4.96,14.0,47.84626,-54.09684
2018-06-28 21:50:00+00:00,285.9697,4.9,14.0,47.84626,-54.09684
2018-06-28 22:00:00+00:00,294.2614,4.9,13.92,47.84626,-54.09684
2018-06-28 22:10:00+00:00,301.1747,4.9,13.84,47.84626,-54.09684
2018-06-28 22:20:00+00:00,309.0696,4.9,13.84,47.84626,-54.09684
2018-06-28 22:30:00+00:00,316.8897,4.9,13.84,47.84626,-54.09684
2018-06-28 22:40:00+00:00,323.5579,4.9,13.76,47.84626,-54.09684
2018-06-28 22:50:00+00:00,329.4529,4.9,13.76,47.84626,-54.09684
2018-06-28 23:00:00+00:00,335.4396,4.9,13.68,47.84626,-54.09684
2018-06-28 23:10:00+00:00,338.5179,4.9,13.53,47.84626,-54.09684
2018-06-28 23:20:00+00:00,341.8696,4.9,13.44,47.84626,-54.09684
2018-06-28 23:30:00+00:00,344.2863,4.9,13.44,47.84626,-54.09684
2018-06-28 23:40:00+00:00,344.8346,4.9,13.44,47.84626,-54.09684
2018-06-28 23:50:00+00:00,346.6379,4.9,13.37,47.84626,-54.09684
